Terminal Aerodrome Forecast
Issued by NWS

Home | Current Version | Previous Version | Text Only | Print | Product List | Glossary On
Versions: 1 2 3 4 5 6 7 8 9 10 11 12 13 14 15 16 17 18 19 20 21 22 23 24 25 26 27 28 29 30
000
FTUS43 KDVN 260520
TAFCID
TAF
KCID 260520Z 2606/2706 VRB04KT P6SM VCSH OVC050
     FM260900 23007KT 4SM -SHRA BR OVC040
     FM261200 28008KT 5SM -SHRA BR OVC015
     FM261400 29011KT 6SM BR OVC008
     FM262300 29013KT 5SM -RA OVC015=

USA.gov is the U.S. government's official web portal to all federal, state and local government web resources and services.